Total_Precipitation_Accumulation
0.00 0.00 0.00 0.00 0.01 0.01 0.01 0.04 0.11 0.15 0.14 0.20 0.30 0.50 0.67 0.66 0.82 1.21 1.44 1.45 1.43 1.73 2.22 2.58 2.83 3.01 3.34 3.51 3.64 3.61 3.78 4.12 4.41 4.25 3.90 3.65 3.29 3.03 2.82 2.59 2.43 2.42 2.39 2.54
0.00 0.01 0.00 0.01 0.01 0.01 0.02 0.06 0.14 0.16 0.15 0.25 0.38 0.60 0.77 0.89 1.13 1.27 1.21 1.23 1.40 1.78 2.28 2.64 2.91 3.07 3.33 3.58 3.97 4.05 4.19 4.49 4.57 4.39 4.25 4.06 3.85 3.42 3.28 3.14 2.90 2.52 2.35 2.43
0.01 0.01 0.01 0.01 0.01 0.02 0.04 0.07 0.13 0.14 0.21 0.34 0.44 0.82 1.00 1.13 1.27 1.25 1.21 1.42 1.46 1.56 1.99 2.26 2.38 2.59 2.77 2.89 3.12 3.38 3.82 4.29 4.40 4.45 4.37 4.28 4.23 3.69 3.40 3.21 2.95 2.62 2.38 2.31
0.01 0.01 0.01 0.02 0.02 0.02 0.06 0.06 0.06 0.10 0.19 0.45 0.52 1.04 1.27 1.47 1.54 1.35 1.31 1.28 1.30 1.56 1.90 1.92 1.79 1.94 2.20 2.19 2.49 2.86 3.27 3.59 3.79 3.91 3.88 3.84 3.70 3.45 3.34 3.21 2.80 2.52 2.31 2.24
0.02 0.02 0.02 0.04 0.03 0.03 0.05 0.04 0.07 0.11 0.19 0.41 0.46 0.81 1.30 1.69 1.81 1.41 1.28 1.19 1.29 1.56 1.61 1.58 1.60 1.71 1.88 2.05 2.36 2.65 2.91 3.17 3.32 3.37 3.40 3.44 3.27 3.15 3.10 2.97 2.66 2.38 2.22 2.10
0.02 0.04 0.04 0.03 0.03 0.04 0.04 0.07 0.13 0.20 0.37 0.71 0.61 0.72 1.23 1.62 1.46 1.24 1.17 1.00 1.10 1.33 1.43 1.49 1.58 1.71 1.84 2.13 2.48 2.74 2.91 3.10 3.15 2.92 2.79 2.77 2.78 2.79 2.72 2.54 2.33 2.07 1.95 1.85
0.13 0.10 0.07 0.05 0.06 0.07 0.08 0.17 0.56 0.92 1.24 1.14 0.72 0.82 1.40 1.28 0.93 0.85 0.94 0.92 0.94 1.01 1.16 1.28 1.46 1.67 1.84 1.94 2.02 2.36 2.69 2.87 2.82 2.58 2.41 2.32 2.39 2.46 2.39 2.23 2.15 2.01 1.78 1.63
0.28 0.25 0.13 0.09 0.12 0.13 0.13 0.24 0.69 0.95 1.00 0.99 0.79 1.18 1.60 1.20 0.82 0.68 0.78 0.79 0.70 0.66 0.64 0.73 0.91 1.03 1.12 1.14 1.18 1.31 1.52 1.74 1.83 1.75 1.76 1.78 1.81 1.83 1.81 1.94 1.85 1.82 1.68 1.53
0.16 0.15 0.10 0.12 0.17 0.18 0.24 0.28 0.30 0.50 0.69 1.03 1.03 1.20 1.22 0.97 0.78 0.73 0.84 0.78 0.61 0.55 0.51 0.57 0.68 0.69 0.79 0.82 0.87 1.00 1.19 1.35 1.39 1.40 1.41 1.44 1.43 1.46 1.51 1.55 1.51 1.51 1.53 1.45
0.10 0.10 0.10 0.11 0.15 0.18 0.20 0.28 0.43 0.68 0.91 1.05 1.11 1.37 1.50 1.34 1.10 0.97 0.93 0.79 0.59 0.48 0.44 0.49 0.58 0.60 0.71 0.86 1.00 1.14 1.25 1.27 1.25 1.26 1.25 1.16 1.26 1.28 1.34 1.30 1.23 1.23 1.28 1.28
0.08 0.09 0.13 0.18 0.22 0.22 0.23 0.30 0.46 0.63 0.70 0.89 1.22 1.31 1.02 0.97 0.99 1.06 1.06 0.88 0.61 0.46 0.42 0.46 0.56 0.61 0.68 0.81 0.95 1.08 1.18 1.27 1.22 1.16 1.19 1.22 1.23 1.23 1.23 1.19 1.11 1.16 1.21 1.19
0.09 0.11 0.17 0.24 0.21 0.16 0.22 0.32 0.47 0.71 0.77 0.80 0.94 1.02 0.60 0.59 0.71 0.81 0.81 0.65 0.48 0.42 0.41 0.47 0.52 0.57 0.66 0.77 0.85 0.86 0.93 1.09 1.10 1.09 1.17 1.32 1.31 1.27 1.17 1.08 1.04 1.07 1.09 1.10
0.15 0.15 0.27 0.54 0.49 0.26 0.25 0.25 0.35 0.49 0.60 0.68 0.87 1.00 0.60 0.57 0.71 0.75 0.72 0.58 0.49 0.48 0.50 0.56 0.54 0.52 0.57 0.67 0.75 0.76 0.83 0.96 1.05 1.08 1.17 1.28 1.24 1.19 1.07 0.97 0.99 0.99 0.98 1.03
0.13 0.14 0.24 0.62 0.66 0.43 0.31 0.27 0.31 0.43 0.54 0.52 0.51 0.68 0.67 0.66 0.77 0.76 0.73 0.64 0.61 0.54 0.55 0.64 0.67 0.58 0.56 0.60 0.63 0.65 0.78 0.94 0.96 0.96 1.02 1.08 1.03 0.99 0.98 0.97 0.94 0.91 0.94 1.00
0.13 0.17 0.17 0.27 0.37 0.40 0.37 0.30 0.26 0.29 0.33 0.43 0.46 0.60 0.74 0.74 0.74 0.66 0.61 0.61 0.63 0.57 0.50 0.54 0.51 0.49 0.50 0.51 0.53 0.59 0.62 0.73 0.84 0.91 0.94 0.97 1.00 1.00 0.97 0.92 0.86 0.86 0.87 0.83
0.20 0.24 0.22 0.30 0.38 0.41 0.40 0.36 0.28 0.24 0.25 0.30 0.37 0.52 0.57 0.64 0.63 0.61 0.53 0.51 0.56 0.46 0.40 0.40 0.35 0.31 0.34 0.40 0.44 0.50 0.52 0.60 0.71 0.72 0.76 0.90 1.00 0.97 0.95 0.85 0.81 0.80 0.81 0.87
0.31 0.33 0.33 0.37 0.44 0.54 0.56 0.35 0.31 0.32 0.28 0.39 0.59 0.65 0.60 0.75 0.68 0.55 0.49 0.43 0.39 0.36 0.34 0.30 0.25 0.24 0.28 0.34 0.41 0.45 0.52 0.57 0.63 0.67 0.70 0.73 0.84 0.90 0.86 0.77 0.74 0.77 0.81 0.88
0.36 0.51 0.53 0.49 0.65 0.80 0.63 0.36 0.30 0.35 0.33 0.31 0.43 0.48 0.53 0.73 0.69 0.53 0.43 0.40 0.34 0.32 0.31 0.27 0.26 0.26 0.32 0.38 0.43 0.53 0.59 0.61 0.63 0.72 0.76 0.74 0.74 0.82 0.84 0.80 0.77 0.83 0.88 0.91
0.31 0.50 0.57 0.62 0.76 0.77 0.61 0.48 0.42 0.47 0.52 0.34 0.38 0.41 0.43 0.49 0.55 0.58 0.42 0.44 0.45 0.37 0.36 0.32 0.30 0.32 0.40 0.45 0.48 0.59 0.62 0.66 0.71 0.74 0.77 0.75 0.74 0.79 0.83 0.83 0.87 0.94 1.00 0.94
0.40 0.53 0.67 0.64 0.79 0.94 0.76 0.58 0.47 0.54 0.92 0.57 0.40 0.36 0.39 0.45 0.68 0.75 0.50 0.41 0.38 0.35 0.39 0.42 0.41 0.46 0.51 0.54 0.63 0.73 0.79 0.84 0.87 0.83 0.78 0.77 0.82 0.88 0.91 0.98 1.13 1.19 1.21 1.13
0.80 0.83 0.81 0.77 0.83 0.85 0.74 0.56 0.51 0.91 1.12 0.64 0.49 0.45 0.47 0.50 0.59 0.61 0.50 0.42 0.39 0.42 0.48 0.58 0.66 0.74 0.78 0.70 0.78 0.89 0.99 1.03 1.01 1.02 0.99 0.95 0.98 1.09 1.17 1.32 1.43 1.48 1.45 1.49
1.05 1.06 1.01 0.99 1.13 1.15 0.83 0.79 0.94 1.04 0.91 0.73 0.61 0.58 0.52 0.49 0.47 0.50 0.50 0.51 0.46 0.47 0.55 0.63 0.70 0.78 0.86 0.93 1.01 1.06 1.08 1.12 1.20 1.20 1.20 1.22 1.28 1.17 1.20 1.44 1.53 1.65 1.74 1.71
1.02 1.06 1.08 1.13 1.18 1.04 0.93 1.05 1.09 0.96 0.99 0.91 0.75 0.71 0.64 0.59 0.49 0.45 0.48 0.52 0.55 0.53 0.57 0.65 0.70 0.75 0.86 0.97 1.08 1.24 1.31 1.29 1.33 1.40 1.42 1.46 1.50 1.53 1.56 1.67 1.74 1.78 1.80 1.77
1.11 0.97 1.13 1.27 1.30 1.20 1.18 1.14 1.11 1.07 1.04 0.93 0.76 0.74 0.69 0.62 0.53 0.52 0.53 0.56 0.57 0.59 0.58 0.61 0.71 0.76 0.83 0.99 1.19 1.35 1.39 1.35 1.44 1.56 1.58 1.67 1.80 1.82 1.83 1.93 1.94 1.94 1.94 1.89
1.23 1.20 1.44 1.59 1.54 1.53 1.54 1.35 1.18 1.07 0.93 0.84 0.72 0.71 0.65 0.61 0.58 0.55 0.56 0.59 0.56 0.53 0.56 0.60 0.66 0.76 0.79 0.85 1.03 1.22 1.36 1.44 1.55 1.65 1.70 1.83 1.97 2.06 2.09 1.98 2.00 2.03 2.08 2.01
1.25 1.33 1.54 1.72 1.55 1.50 1.56 1.36 1.11 1.07 1.07 0.99 0.95 0.92 0.81 0.74 0.73 0.64 0.56 0.54 0.51 0.51 0.55 0.63 0.65 0.69 0.76 0.80 0.92 1.09 1.31 1.47 1.67 1.72 1.77 1.87 1.96 2.08 2.08 2.05 1.95 1.84 1.76 1.71